Weather History for Glendive, MT

Change the Weather History Date:

Tuesday, November 27, 2012

  Actual Average Record
Temperature  
Mean Temperature 26 °F -  
Max Temperature 33 °F 35 °F 51 °F (2011)
Min Temperature 19 °F 17 °F -5 °F (1996)
Degree Days  
Heating Degree Days 39    
Moisture  
Dew Point 20 °F    
Average Humidity 84    
Maximum Humidity 93    
Minimum Humidity 64    
Precipitation  
Precipitation 0.00 in - - ()
Sea Level Pressure  
Sea Level Pressure 30.11 in    
Wind  
Wind Speed 3 mph (SSW)    
Max Wind Speed 9 mph    
Max Gust Speed -    
Visibility 10 miles    
Events      
Averages and records for this station are not official NWS values.
T = Trace of Precipitation, MM = Missing Value Source: NWS Daily Summary

Daily Weather History Graph

Daily Weather History Graph

Search for Another Location

Airport:

Trip Planner

Search our weather history database for the weather conditions in past years. The results will help you decide how hot, cold, wet, or windy it might be!

Date:

Astronomy

Nov. 27, 2012 Rise Set
Actual Time 7:20 AM MST 4:13 PM MST
Civil Twilight 6:45 AM MST 4:47 PM MST
Nautical Twilight 6:07 AM MST 5:25 PM MST
Astronomical Twilight 5:31 AM MST 6:02 PM MST
Moon 3:47 PM MST (11/27) 6:26 AM MST (11/27)
Length of Visible Light 10h 01m
Length of Day
8h 52m
Waxing Gibbous, 99% of the Moon is Illuminated
Nov 27
Waxing Gibbous
Nov 28
Full
Dec 6
Last Quarter
Dec 13
New
Dec 19
First Quarter

Hourly Weather History & Observations

Time (MST) Temp. Windchill Dew Point Humidity Pressure Visibility Wind Dir Wind Speed Gust Speed Precip Events Conditions
12:15 AM 24.8 °F - 21.2 °F 86% 30.08 in 10.0 mi Calm Calm - N/A   Clear
12:35 AM 24.8 °F 19.1 °F 21.2 °F 86% 30.07 in 10.0 mi WNW 4.6 mph - N/A   Clear
12:55 AM 23.0 °F 14.7 °F 17.6 °F 80% 30.07 in 10.0 mi WNW 6.9 mph - N/A   Clear
1:55 AM 21.2 °F - 17.6 °F 86% 30.07 in 10.0 mi Calm Calm - N/A   Clear
2:15 AM 21.2 °F 16.4 °F 19.4 °F 93% 30.08 in 10.0 mi SW 3.5 mph - N/A   Clear
2:35 AM 21.2 °F 14.9 °F 17.6 °F 86% 30.07 in 10.0 mi SW 4.6 mph - N/A   Clear
2:55 AM 19.4 °F 14.3 °F 17.6 °F 93% 30.07 in 10.0 mi West 3.5 mph - N/A   Clear
3:15 AM 21.2 °F 13.6 °F 15.8 °F 80% 30.06 in 10.0 mi WNW 5.8 mph - N/A   Clear
3:35 AM 19.4 °F 11.5 °F 15.8 °F 86% 30.06 in 10.0 mi WNW 5.8 mph - N/A   Clear
3:55 AM 19.4 °F 14.3 °F 15.8 °F 86% 30.07 in 10.0 mi West 3.5 mph - N/A   Clear
4:15 AM 19.4 °F 14.3 °F 14.0 °F 80% 30.06 in 10.0 mi SW 3.5 mph - N/A   Clear
4:35 AM 19.4 °F 11.5 °F 15.8 °F 86% 30.07 in 10.0 mi South 5.8 mph - N/A   Clear
4:55 AM 19.4 °F 12.8 °F 15.8 °F 86% 30.07 in 10.0 mi South 4.6 mph - N/A   Clear
5:15 AM 19.4 °F 12.8 °F 17.6 °F 93% 30.06 in 10.0 mi SSW 4.6 mph - N/A   Clear
5:35 AM 19.4 °F 11.5 °F 14.0 °F 80% 30.07 in 10.0 mi SSW 5.8 mph - N/A   Clear
5:55 AM 19.4 °F 12.8 °F 14.0 °F 80% 30.06 in 10.0 mi SW 4.6 mph - N/A   Clear
6:15 AM 19.4 °F 14.3 °F 15.8 °F 86% 30.07 in 10.0 mi SW 3.5 mph - N/A   Clear
6:35 AM 19.4 °F - 15.8 °F 86% 30.07 in 10.0 mi Calm Calm - N/A   Clear
6:55 AM 19.4 °F - 15.8 °F 86% 30.07 in 10.0 mi Calm Calm - N/A   Clear
7:15 AM 19.4 °F 12.8 °F 17.6 °F 93% 30.07 in 10.0 mi South 4.6 mph - N/A   Clear
7:35 AM 19.4 °F 14.3 °F 15.8 °F 86% 30.08 in 10.0 mi SSW 3.5 mph - N/A   Clear
7:55 AM 21.2 °F 16.4 °F 17.6 °F 86% 30.08 in 10.0 mi WSW 3.5 mph - N/A   Clear
8:15 AM 21.2 °F 16.4 °F 19.4 °F 93% 30.09 in 10.0 mi SSW 3.5 mph - N/A   Clear
8:35 AM 21.2 °F - 19.4 °F 93% 30.10 in 10.0 mi Calm Calm - N/A   Clear
8:55 AM 23.0 °F 17.0 °F 19.4 °F 86% 30.10 in 10.0 mi South 4.6 mph - N/A   Clear
9:15 AM 23.0 °F 18.4 °F 19.4 °F 86% 30.11 in 10.0 mi South 3.5 mph - N/A   Clear
9:35 AM 24.8 °F 17.9 °F 21.2 °F 86% 30.11 in 10.0 mi South 5.8 mph - N/A   Clear
9:55 AM 26.6 °F 20.0 °F 21.2 °F 80% 30.12 in 10.0 mi South 5.8 mph - N/A   Clear
10:15 AM 26.6 °F 19.1 °F 21.2 °F 80% 30.12 in 10.0 mi SSW 6.9 mph - N/A   Clear
10:35 AM 26.6 °F 20.0 °F 21.2 °F 80% 30.12 in 10.0 mi South 5.8 mph - N/A   Clear
10:55 AM 28.4 °F 22.2 °F 24.8 °F 86% 30.13 in 10.0 mi South 5.8 mph - N/A   Clear
11:15 AM 28.4 °F 23.3 °F 24.8 °F 86% 30.12 in 10.0 mi South 4.6 mph - N/A   Clear
11:35 AM 28.4 °F 22.2 °F 24.8 °F 86% 30.13 in 10.0 mi SSE 5.8 mph - N/A   Clear
11:55 AM 30.2 °F 23.4 °F 24.8 °F 80% 30.12 in 10.0 mi South 6.9 mph - N/A   Clear
12:15 PM 30.2 °F 25.4 °F 24.8 °F 80% 30.12 in 10.0 mi South 4.6 mph - N/A   Clear
12:35 PM 30.2 °F 25.4 °F 24.8 °F 80% 30.11 in 10.0 mi SE 4.6 mph - N/A   Clear
12:55 PM 30.2 °F - 24.8 °F 80% 30.12 in 10.0 mi Calm Calm - N/A   Clear
1:15 PM 30.2 °F 26.7 °F 24.8 °F 80% 30.12 in 10.0 mi SE 3.5 mph - N/A   Clear
1:35 PM 30.2 °F - 24.8 °F 80% 30.12 in 10.0 mi Calm Calm - N/A   Clear
1:55 PM 32.0 °F 28.7 °F 24.8 °F 75% 30.13 in 10.0 mi SSE 3.5 mph - N/A   Clear
2:15 PM 32.0 °F 27.5 °F 24.8 °F 75% 30.13 in 10.0 mi SSE 4.6 mph - N/A   Clear
2:35 PM 32.0 °F - 24.8 °F 75% 30.13 in 10.0 mi Calm Calm - N/A   Clear
2:55 PM 32.0 °F - 24.8 °F 75% 30.14 in 10.0 mi Calm Calm - N/A   Clear
3:15 PM 33.8 °F - 23.0 °F 65% 30.15 in 10.0 mi Calm Calm - N/A   Clear
3:35 PM 32.0 °F - 21.2 °F 64% 30.14 in 10.0 mi Calm Calm - N/A   Clear
3:55 PM 30.2 °F - 24.8 °F 80% 30.14 in 10.0 mi Calm Calm - N/A   Clear
4:15 PM 30.2 °F - 24.8 °F 80% 30.15 in 10.0 mi Calm Calm - N/A   Clear
4:35 PM 30.2 °F - 24.8 °F 80% 30.15 in 10.0 mi Calm Calm - N/A   Clear
4:55 PM 28.4 °F - 24.8 °F 86% 30.15 in 10.0 mi Calm Calm - N/A   Clear
5:15 PM 26.6 °F - 24.8 °F 93% 30.15 in 10.0 mi Calm Calm - N/A   Clear
5:35 PM 28.4 °F - 24.8 °F 86% 30.15 in 10.0 mi Calm Calm - N/A   Clear
6:15 PM 26.6 °F - 21.2 °F 80% 30.15 in 10.0 mi Calm Calm - N/A   Clear
6:35 PM 24.8 °F 20.5 °F 19.4 °F 80% 30.15 in 10.0 mi SSW 3.5 mph - N/A   Clear
6:55 PM 19.4 °F 11.5 °F 15.8 °F 86% 30.15 in 10.0 mi SSW 5.8 mph - N/A   Clear
7:15 PM 21.2 °F 13.6 °F 19.4 °F 93% 30.15 in 10.0 mi SSW 5.8 mph - N/A   Clear
7:35 PM 24.8 °F 20.5 °F 19.4 °F 80% 30.15 in 10.0 mi SSW 3.5 mph - N/A   Clear
7:55 PM 24.8 °F 17.9 °F 19.4 °F 80% 30.15 in 10.0 mi SSW 5.8 mph - N/A   Clear
8:15 PM 23.0 °F 18.4 °F 19.4 °F 86% 30.15 in 10.0 mi SSW 3.5 mph - N/A   Clear
8:35 PM 24.8 °F 20.5 °F 21.2 °F 86% 30.14 in 10.0 mi South 3.5 mph - N/A   Clear
8:55 PM 23.0 °F 17.0 °F 19.4 °F 86% 30.13 in 10.0 mi SSE 4.6 mph - N/A   Clear
9:15 PM 21.2 °F - 17.6 °F 86% 30.13 in 10.0 mi Calm Calm - N/A   Clear
9:35 PM 24.8 °F 17.9 °F 21.2 °F 86% 30.13 in 10.0 mi South 5.8 mph - N/A   Clear
9:55 PM 23.0 °F 18.4 °F 19.4 °F 86% 30.12 in 10.0 mi South 3.5 mph - N/A   Clear
10:15 PM 23.0 °F 15.8 °F 19.4 °F 86% 30.12 in 10.0 mi South 5.8 mph - N/A   Clear
10:35 PM 21.2 °F 13.6 °F 17.6 °F 86% 30.12 in 10.0 mi South 5.8 mph - N/A   Clear
10:55 PM 21.2 °F 12.6 °F 19.4 °F 93% 30.12 in 10.0 mi South 6.9 mph - N/A   Clear
11:15 PM 21.2 °F 10.9 °F 15.8 °F 80% 30.12 in 10.0 mi South 9.2 mph - N/A   Clear
11:35 PM 21.2 °F 11.7 °F 15.8 °F 80% 30.11 in 10.0 mi SSW 8.1 mph - N/A   Clear
11:55 PM 21.2 °F 12.6 °F 17.6 °F 86% 30.11 in 10.0 mi SSW 6.9 mph - N/A   Clear